DW8935 Weather Reports


time (UTC)temp
C
wind
direction
speed
KPH
gust
KPH
rain 1hr
cm
rain 24hr
cm
rain mn
cm
humidity
%
barometer
mb
20260507060024 11 242 1.6 6.4 0.00 0.00 0.00 80 1021.9
20260507054524 11 242 3.2 9.7 0.00 0.00 0.00 78 1022.0
20260507053031 11 183 1.6 9.7 0.00 0.00 0.00 77 1022.0
20260507051524 11 252 1.6 8.0 0.00 0.00 0.00 76 1022.0
20260507050024 11 200 1.6 9.7 0.00 0.00 0.00 77 1021.8
20260507044524 11 196 1.6 12.9 0.00 0.00 0.00 75 1021.9
20260507043025 11 261 1.6 14.5 0.00 0.00 0.00 75 1021.8
20260507041523 11 212 4.8 11.3 0.00 0.00 0.00 79 1021.9
20260507040023 11 225 4.8 9.7 0.00 0.00 0.00 79 1021.9
20260507034532 11 239 3.2 8.0 0.00 0.00 0.00 80 1021.8
20260507033022 11 243 3.2 6.4 0.00 0.00 0.00 78 1022.0
20260507031522 11 186 1.6 9.7 0.00 0.00 0.00 74 1021.9
20260507030023 11 192 3.2 8.0 0.00 0.00 0.00 75 1021.9
20260507024521 11 178 4.8 9.7 0.00 0.00 0.00 77 1022.0
20260507023020 11 190 1.6 11.3 0.00 0.00 0.00 78 1022.1
20260507021520 11 239 3.2 9.7 0.00 0.00 0.00 77 1022.3
20260507020020 12 191 6.4 20.9 0.00 0.00 0.00 68 1022.4
20260507014521 12 252 6.4 17.7 0.00 0.00 0.00 62 1021.9
20260507013016 12 236 4.8 17.7 0.00 0.00 0.00 64 1021.9
20260507011613 11 193 6.4 20.9 0.00 0.00 0.00 67 1022.0
20260507010026 11 230 3.2 11.3 0.00 0.00 0.00 75 1021.9
20260507004507 10 263 1.6 11.3 0.00 0.00 0.00 81 1021.8
20260507003005 10 248 3.2 14.5 0.00 0.00 0.00 82 1021.7
20260507001502 10 243 4.8 11.3 0.00 0.00 0.00 83 1021.5
20260507000002 8 231 3.2 11.3 0.00 0.00 0.00 88 1021.4
20260506234501 7 221 0.0 4.8 0.00 0.00 0.00 90 1021.3
20260506233002 7 204 0.0 1.6 0.00 0.00 0.00 91 1021.2
20260506231600 7 246 0.0 1.6 0.00 0.00 0.00 92 1021.4
20260506230101 7 173 0.0 1.6 0.00 0.00 0.00 91 1021.1
20260506224613 7 247 0.0 3.2 0.00 0.00 0.00 91 1021.0
20260506223102 7 270 0.0 3.2 0.00 0.00 0.00 92 1021.0
20260506221557 7 314 0.0 1.6 0.00 0.00 0.00 92 1020.7
20260506220108 7 323 0.0 3.2 0.00 0.00 0.00 92 1020.5
20260506214555 6 238 0.0 1.6 0.00 0.00 0.00 92 1020.3
20260506213053 6 236 0.0 1.6 0.00 0.00 0.00 91 1020.1
20260506211556 6 188 0.0 11.3 0.00 0.00 0.00 91 1019.9
20260506210050 6 227 0.0 4.8 0.00 0.00 0.00 91 1019.4
20260506204549 6 243 0.0 1.6 0.00 0.00 0.00 91 1019.0
20260506203056 6 281 0.0 4.8 0.00 0.00 0.00 91 1018.7
20260506201548 6 286 0.0 3.2 0.00 0.00 0.00 91 1018.4
20260506200047 6 254 1.6 6.4 0.00 0.00 0.00 91 1018.5
20260506194551 6 297 1.6 9.7 0.00 0.00 0.00 91 1018.6
20260506193051 6 248 1.6 4.8 0.00 0.00 0.00 90 1019.3
20260506191545 6 268 0.0 4.8 0.00 0.00 0.00 90 1018.1
20260506190045 6 331 1.6 6.4 0.00 0.00 0.00 90 1017.9
20260506184543 6 324 0.0 6.4 0.00 0.00 0.00 89 1017.9
20260506183043 6 261 3.2 8.0 0.00 0.00 0.00 89 1018.7
20260506181558 6 221 3.2 9.7 0.00 0.00 0.00 88 1018.9
20260506180041 6 266 1.6 4.8 0.00 0.00 0.00 88 1018.4
20260506174539 6 282 1.6 8.0 0.00 0.00 0.00 87 1017.9
20260506173047 6 242 1.6 11.3 0.00 0.00 0.00 85 1018.6
20260506171535 7 179 4.8 12.9 0.00 0.00 0.00 85 1019.3
20260506170030 7 232 4.8 9.7 0.00 0.00 0.00 81 1018.5
20260506164529 8 215 3.2 9.7 0.00 0.00 0.00 80 1018.5
20260506163028 8 272 0.0 4.8 0.00 0.00 0.00 78 1017.9
20260506161527 8 236 1.6 8.0 0.00 0.00 0.00 79 1017.8
20260506160037 8 210 3.2 8.0 0.00 0.00 0.00 81 1017.8
20260506154527 7 225 1.6 8.0 0.00 0.00 0.00 82 1017.9
20260506153025 7 281 1.6 8.0 0.00 0.00 0.00 82 1018.0
20260506151524 7 276 1.6 8.0 0.00 0.00 0.00 83 1018.2
20260506150024 8 241 1.6 9.7 0.00 0.00 0.00 81 1018.0
20260506144519 8 221 1.6 8.0 0.00 0.00 0.00 78 1018.3
20260506143015 8 211 0.0 3.2 0.00 0.00 0.00 73 1018.2
20260506141612 9 223 0.0 1.6 0.00 0.00 0.00 76 1017.7
20260506140010 10 246 0.0 3.2 0.00 0.00 0.00 74 1017.9
20260506134509 10 238 0.0 1.6 0.00 0.00 0.00 74 1017.5
20260506133009 10 232 0.0 1.6 0.00 0.00 0.00 73 1017.4
20260506131513 10 253 0.0 3.2 0.00 0.00 0.00 76 1017.4
20260506130006 10 269 0.0 1.6 0.00 0.00 0.00 74 1017.3
20260506124506 10 227 0.0 4.8 0.00 0.00 0.00 77 1017.0
20260506123005 10 256 0.0 4.8 0.00 0.00 0.00 81 1017.0
20260506121506 10 228 3.2 19.3 0.00 0.00 0.00 87 1016.9
20260506120008 10 254 3.2 12.9 0.00 0.00 0.00 90 1016.8
20260506114503 10 262 3.2 14.5 0.00 0.00 0.00 91 1016.9
20260506113003 10 236 4.8 11.3 0.00 0.00 0.00 91 1016.7
20260506111502 10 252 3.2 11.3 0.00 0.00 0.00 91 1016.7
20260506110001 10 230 6.4 20.9 0.00 0.00 0.00 91 1016.7
20260506104559 10 218 8.0 22.5 0.00 0.00 0.00 90 1016.7
20260506103056 11 217 6.4 27.4 0.00 0.00 0.00 90 1016.3
20260506101553 11 237 6.4 25.7 0.00 0.00 0.00 90 1016.0
20260506100051 12 267 3.2 19.3 0.00 0.00 0.00 90 1015.5
20260506094604 12 213 6.4 19.3 0.00 0.00 0.00 90 1015.4
20260506093047 12 327 4.8 16.1 0.00 0.00 0.00 90 1014.6
20260506091548 12 19 6.4 17.7 0.00 0.00 0.00 89 1014.4
20260506090045 13 339 6.4 14.5 0.00 0.00 0.00 89 1014.6
20260506084544 13 263 4.8 12.9 0.00 0.00 0.00 87 1014.5
20260506083041 13 282 3.2 16.1 0.00 0.00 0.00 85 1014.7
20260506081539 13 265 6.4 27.4 0.00 0.00 0.00 81 1015.0
20260506073039 16 355 6.4 27.4 0.00 0.00 0.00 65 1013.4
20260506071541 16 313 12.9 27.4 0.00 0.00 0.00 63 1013.3
20260506061534 17 271 6.4 20.9 0.00 0.00 0.00 60 1014.1